FENGYUN 1C DEB

Satellite information

Favourite Embed

Satellite Type and Status

DEBRISIN ORBIT

Key statistics

Satellite FENGYUN 1C DEB at a glance.

Uptime

9555

Days in orbit

Revolutions

≈ 14.1

Per day

Orbit

SSO

Sun Synchronous Orbit

Inclination

99.0

Latest

Satellite identification and parameters

Extended collection of information and parameters for FENGYUN 1C DEB.

Object identification

Identified? True

Debris? True

Object name: FENGYUN 1C DEB

International designator: 1999-025EHE

Object number (NORAD): 37436

Object ID (CCSDS): 37436

Country: PEOPLES REPUBLIC OF CHINA (PRC)

Current information (Y/N): Y

RCS size: SMALL

Orbital parameters

Period: 102.418 minutes

Inclination: 98.9576 deg

SMA: 7251.205 km

Apoapsis: 915.442 km

Periapsis: 830.697 km

RAAN: 242.7786 deg

Eccentricy: 0.0058435

Argument of periapsis: 235.6341 deg

Mean anomaly: 123.9292 deg

Mean motion: 14.06007146 rev/day

Mean motion (dot): 0.00000378 rev/day2

B* drag term: 0.00025374 1/REarth

Two-line elements (TLE)

Creation date: July 5, 2025, 5:45 p.m.

Reference frame: TEME

Reference center: EARTH

Epoch: July 5, 2025, 9:35 a.m. UTC

TLE line 0: 0 FENGYUN 1C DEB

TLE line 1: 1 37436U 99025EHE 25186.39956013 .00000378 00000-0 25374-3 0 9998

TLE line 2: 2 37436 98.9576 242.7786 0058435 235.6341 123.9292 14.06007146617454

Live tracking on map

Real-time ground track for satellite FENGYUN 1C DEB.

In-orbit conjunctions

A list of the most updated potential collisions computed for object FENGYUN 1C DEB.

Target Orbit TCA Probability of collision Miss distance Type
FENGYUN 1C DEB SSO 2025-07-07 20:57:27 0.0001462874 302.0 (m) DEBRIS
CZ-6A DEB LEO 2025-01-28 10:53:01 0.0001335291 824.0 (m) DEBRIS
COSMOS 1833 LEO 2025-01-10 02:12:10 0.0001135088 976.0 (m) PAYLOAD
METEOR 2-8 DEB LEO 2024-11-13 08:13:58 0.0007012494 71.0 (m) DEBRIS
SL-16 R/B LEO 2024-10-13 12:12:34 0.0001431206 550.0 (m) ROCKET BODY

Associated space launch

Chinese polar orbiting meteorological satellite

FENGYUN 1C DEB was lifted into orbit during the mission ‘Long March 4B | Feng Yun 1C’, on board a Long March 4B space rocket.

The launch took place on May 10, 1999, 1:33 a.m. from Launch Complex 7.

For more information about the launch, click the button.

Launch to space Long March 4B | Feng Yun 1C
Long March 4B | Feng Yun 1C

Agency: N/A

Status: Launch Successful

Launch date: May 10, 1999, 1:33 a.m. UTC

Rocket: Long March 4B

Launch pad: Launch Complex 7

Location: Taiyuan Satellite Launch Center, People's Republic of China

...

Latest news about this satellite

There are no fresh news available about this satellite. Check back as we update our databases every day.


Newsletter sign-up

Weekly statistics, charts and insights to help you stay on top of the space industry.